Flag for Germany Weather past 2 weeks in Detmold, North Rhine-Westphalia, Germany

39 °F

Light freezing rain. Low clouds.

Feels Like: 37 °F
Forecast: 32 / 42 °F
Wind: 3 mph from West

Location: Bad Lippspringe

Current Time: Nov 26, 2015 at 4:18:32 AM

Latest Report: Nov 26, 2015 at 3:00 AM

Visibility: 2 mi

Pressure: 29.81 "Hg

Humidity: 99%

Dew point: 39 °F

Location of DetmoldLocation

Historic Weather in Detmold — Graph


Detmold temperature yesterday

Maximum temperature yesterday: 42 °F (at 2:00 PM)
Minimum temperature yesterday: 34 °F (at 2:00 AM)
Average temperature yesterday: 39 °F

Past Weeks' High & Low Weather Summary

High59 °F (Nov 17, 10:00 PM)100% (Nov 25, 11:00 PM)30.31 "Hg (Nov 25, 11:00 PM)
Low33 °F (Nov 23, 9:00 PM)61% (Nov 24, 1:00 PM)29.38 "Hg (Nov 21, 6:00 AM)
Average47 °F85%29.91 "Hg
* Reported Nov 11 3:00 AM — Nov 26 3:00 AM, Detmold, Weather by CustomWeather, © 2015

Note: Actual official high and low records may vary slightly from our data, if they occured in-between our weather recording intervals... More about our weather records


Detmold weather history for previous 24 hours

Time TempWeatherWind HumidityBarometerVisibility
3:00 AM
Thu, Nov 26
39 °FLight freezing rain. Low clouds.3 mph99%29.81 "Hg2 mi
2:00 AM39 °FDrizzle. Low clouds.3 mph99%29.80 "Hg2 mi
12:00 AM40 °FLight rain. Low clouds.3 mph100%29.77 "Hg1 mi
11:00 PM
Wed, Nov 25
40 °FLow clouds.3 mph100%29.75 "Hg2 mi
10:00 PM39 °FDrizzle. Low clouds.1 mph98%29.75 "Hg4 mi
9:00 PM39 °FRain. Low clouds.3 mph97%29.73 "Hg2 mi
8:00 PM40 °FLow clouds.2 mph97%29.71 "Hg6 mi
7:00 PM40 °FOvercast.3 mph97%29.70 "Hg3 mi
6:00 PM41 °FLow clouds.3 mph98%29.68 "Hg2 mi
5:00 PM41 °FLow clouds.2 mph98%29.67 "Hg3 mi
4:00 PM41 °FDrizzle. Low clouds.3 mph97%29.66 "Hg3 mi
3:00 PM42 °FLight freezing rain. Overcast.3 mph92%29.65 "Hg6 mi
2:00 PM42 °FFog.2 mph92%29.65 "Hg4 mi
1:00 PM42 °FLow clouds.3 mph96%29.66 "Hg4 mi
12:00 PM40 °FLow clouds.2 mph97%29.68 "Hg4 mi
11:00 AM39 °FLow clouds.2 mph97%29.69 "Hg7 mi
10:00 AM38 °FLight rain. Low clouds.2 mph95%29.69 "Hg3 mi
9:00 AM37 °FDrizzle. Overcast.2 mph95%29.69 "Hg11 mi
7:00 AM37 °FLow clouds.2 mph95%29.68 "Hg11 mi
4:00 AM35 °FDrizzle. Overcast.2 mph97%29.71 "Hg4 mi
Weather by CustomWeather, © 2015

See weather overviewHow to use our weather pages